Flag for U.S.A. Weather past 2 weeks in Sterling Heights, Michigan, U.S.A.

Now
39 °F

Passing clouds.


Feels Like: 30 °F
Forecast: 37 / 52 °F
Wind: 16 mph from West

Location: Selfridge Air National Guard Base

Current Time: Mar 30, 2015 at 8:55:53 AM

Latest Report: Mar 30, 2015 at 7:55 AM


Visibility: 10 mi

Pressure: 29.85 "Hg

Humidity: 67%

Dew point: 29 °F

Location of Sterling HeightsLocation

Historic Weather in Sterling Heights — Graph

°F

Sterling Heights temperature yesterday

Maximum temperature yesterday: 42 °F (at 10:58 PM)
Minimum temperature yesterday: 20 °F (at 1:58 AM)
Average temperature yesterday: 33 °F

Past Weeks' High & Low Weather Summary

 TemperatureHumidityPressure
High60 °F (Mar 16, 12:55 PM)100% (Mar 16, 5:03 AM)30.40 "Hg (Mar 16, 5:03 AM)
Low16 °F (Mar 27, 10:58 PM)26% (Mar 18, 2:55 PM)29.67 "Hg (Mar 30, 1:03 AM)
Average34 °F65%30.11 "Hg
* Reported Mar 15 6:58 AM — Mar 30 6:58 AM, Sterling Heights, Weather by CustomWeather, © 2015

Note: Actual official high and low records may vary slightly from our data, if they occured in-between our weather recording intervals... More about our weather records

Advertising

Sterling Heights weather history for previous 24 hours

 ConditionsComfort  
Time TempWeatherWind HumidityBarometerVisibility
6:58 AM
Mon, Mar 30
40 °FOvercast.16 mph65%29.81 "Hg10 mi
5:58 AM40 °FMostly cloudy.13 mph70%29.78 "Hg10 mi
4:58 AM40 °FPassing clouds.17 mph69%29.76 "Hg10 mi
3:58 AM41 °FOvercast.14 mph67%29.75 "Hg10 mi
2:58 AM42 °FMostly cloudy.18 mph67%29.73 "Hg10 mi
1:58 AM42 °FMostly cloudy.17 mph69%29.71 "Hg10 mi
1:03 AM41 °FOvercast.17 mph76%29.67 "Hg10 mi
12:58 AM40 °FOvercast.20 mph76%29.69 "Hg10 mi
11:58 PM
Sun, Mar 29
41 °FOvercast.15 mph69%29.71 "Hg10 mi
10:58 PM42 °FOvercast.21 mph57%29.73 "Hg10 mi
9:58 PM42 °FMostly cloudy.18 mph50%29.74 "Hg10 mi
8:58 PM41 °FOvercast.20 mph51%29.80 "Hg10 mi
7:55 PM39 °FMore clouds than sun.20 mph59%29.84 "Hg10 mi
6:55 PM38 °FLight rain. Cloudy.20 mph68%29.86 "Hg6 mi
5:59 PM41 °FLight snow. Mostly cloudy.22 mph45%29.85 "Hg7 mi
4:55 PM39 °FMostly cloudy.26 mph53%29.89 "Hg10 mi
3:55 PM39 °FBroken clouds.25 mph48%29.96 "Hg10 mi
2:55 PM40 °FPartly sunny.26 mph45%30.03 "Hg12 mi
1:55 PM38 °FPartly sunny.25 mph46%30.09 "Hg12 mi
12:55 PM40 °FBroken clouds.20 mph38%30.15 "Hg12 mi
11:55 AM39 °FPartly sunny.20 mph36%30.19 "Hg12 mi
10:55 AM37 °FScattered clouds.18 mph41%30.24 "Hg12 mi
9:55 AM33 °FPassing clouds.12 mph54%30.27 "Hg12 mi
8:55 AM29 °FPassing clouds.10 mph63%30.28 "Hg12 mi
Weather by CustomWeather, © 2015

See weather overviewHow to use our weather pages